www.pogodaiklimat.ru

Погода и климат >> Архив погоды >> Беларусь >> Волковыск


ПОГОДА в Волковыске

  • Прогноз погоды в Волковыске
  • Монитор погоды в Волковыске

АРХИВ ПОГОДЫ в Волковыске

Время (UTC), дата Ветер
(напр.,м/с)
 
Видим.   Явления Облачность Т
(С)
Тd
(С)
f
(%)
Тe
(С)
Тes
(С)
Комфортность P
(гПа)
Po
(гПа)
Тmin
(С)
Tmax
(С)
R
(мм)
R24
(мм)
S
(см)
00 11.06 ЮВ 2 19 км 4/0
[Ci sp]
+21.2 +15.9 72 +25 +25 комфорт 1018.0 996.7
03 11.06 В 2 18 км 8/0
[Ci sp]
+20.0 +15.8 77 +23 +23 комфорт 1018.0 996.6 +19.3
06 11.06 ЮВ 3 19 км 8/0
[Ci sp]
+24.2 +17.4 66 +28 +28 душно 1018.0 996.9 +19.3
09 11.06 ЮВ 5
{10}
17 км 8/4 600 м
[Cu hum Ci sp]
+28.7 +16.3 47 +32 +32 душно 1017.0 996.2
12 11.06 ЮВ 4 20 км 8/5 1000 м
[Cu med, cong Ci sp]
+30.2 +13.9 37 +32 +32 жарко 1016.0 995.3
15 11.06 Ю 3 20 км 4/4 1000 м
[Cu med, cong]
+31.2 +12.5 32 +32 +35 жарко 1016.0 995.4
18 11.06 ЮВ 3 19 км 1/0
[Ci fib]
+28.1 +15.4 46 +31 +31 душно 1016.0 995.2 +31.6
21 11.06 ЮВ 2 18 км ясно +22.3 +16.3 69 +27 +27 душно 1017.0 995.8
00 12.06 В 2 18 км ясно +19.3 +15.8 80 +22 +22 комфорт 1017.0 995.6
03 12.06 В 2 17 км ясно +18.1 +15.5 85 +19 +19 1017.0 995.5 +17.3
06 12.06 ЮВ 2 19 км ясно +26.9 +16.5 53 +30 +37 душно 1016.0 995.1 +17.3
09 12.06 Ю 4 19 км 4/4 600 м
[Cu hum]
+31.2 +12.5 32 +32 +39 жарко 1015.0 994.4
12 12.06 Ю 4 19 км 6/6 900 м
[Cu med, cong]
+32.4 +11.5 28 +32 +36 жарко 1015.0 994.5
15 12.06 ЮВ 4 21 км 6/3 600 м
[Cu hum Ci sp]
+32.2 +10.8 27 +32 +34 жарко 1013.0 992.5
18 12.06 ЮВ 2 20 км 3/0
[Ac trans]
+28.8 +13.4 39 +30 +31 жарко 1014.0 993.3 +33.1
21 12.06 В 2 19 км ясно +22.8 +15.4 63 +27 +27 душно 1015.0 993.9
00 13.06 В 2 18 км ясно +21.2 +15.9 72 +25 +25 комфорт 1016.0 994.7
03 13.06 ЮВ 1 17 км ясно +19.5 +15.8 79 +23 +23 комфорт 1015.0 993.6 +18.9
06 13.06 Ю 2 20 км ясно +27.2 +16.2 51 +31 +37 душно 1016.0 995.2 +18.9
09 13.06 ЮВ 5
{10}
18 км 3/3 1000 м
[Cu hum]
+30.6 +13.4 35 +32 +38 жарко 1016.0 995.4
12 13.06 Ю 6
{11}
17 км 4/4 1000 м
[Cu med, cong]
+32.3 +11.4 28 +32 +36 жарко 1015.0 994.5
15 13.06 ЮВ 5
{11}
20 км 4/3 1000 м
[Cu med, cong Ac cuf]
+31.8 +12.1 30 +32 +34 жарко 1014.0 993.5
18 13.06 ЮВ 2 19 км 8/4 1000 м
[Cu med, cong Ci fib]
+28.8 +12.2 36 +30 +30 жарко 1015.0 994.3 +32.8
21 13.06 штиль 0 19 км 6/0
[Ci fib]
+23.1 +14.9 60 +27 +27 душно 1016.0 994.9
00 14.06 В 1 17 км 3/0
[Ci fib]
+19.2 +14.9 76 +22 +22 комфорт 1017.0 995.6
03 14.06 С 2
{10}
17 км 4/4 300 м
[St]
+18.6 +15.1 80 +20 +20 1018.0 996.5 +17.3
06 14.06 ЮЗ 2 17 км 3/0
[Ci fib]
+25.2 +16.1 57 +29 +33 душно 1017.0 996.0 +17.3
09 14.06 СЗ 4 14 км 8/0
[Ac trans Ci fib]
+25.9 +16.7 57 +30 +30 душно 1018.0 997.0
12 14.06 СЗ 4 20 км 8/0
[Ac trans Ci fib]
+27.8 +15.8 48 +31 +31 душно 1019.0 998.1
15 14.06 С 5 19 км 8/0
[Ac trans Ci fib]
+28.6 +15.8 46 +32 +32 душно 1018.0 997.2
18 14.06 СЗ 2 21 км 4/0
[Ac trans]
+25.6 +14.7 51 +28 +28 жарко 1018.0 997.0 +28.9
21 14.06 штиль 0 18 км 3/0
[Ac trans]
+19.3 +15.6 79 +21 +21 комфорт 1019.0 997.5
00 15.06 СЗ 1 18 км ясно +18.0 +15.4 85 +19 +19 1019.0 997.4
03 15.06 СВ 1 16 км 3/0
[Ac trans]
+17.7 +15.7 88 +19 +19 1019.0 997.4 +16.7
06 15.06 В 2 17 км 8/0
[Ac As]
+22.4 +16.9 71 +27 +27 душно 1018.0 996.8 +16.7
09 15.06 В 3 18 км 8/3 600 м
[Cu med, cong Ac As Ci sp]
+26.3 +16.2 54 +30 +30 душно 1018.0 997.1
12 15.06 СВ 3 18 км 8/5 600 м
[Cu med, cong Ac As]
+27.5 +16.4 51 +31 +31 душно 1016.0 995.2
15 15.06 СВ 2 19 км 6/4 600 м
[Cu med, cong Ci sp]
+28.4 +16.0 47 +32 +34 душно 1015.0 994.3
18 15.06 СВ 2 19 км 4/0
[Ci sp]
+25.8 +15.8 54 +29 +29 душно 1014.0 993.1 +28.8
21 15.06 В 2 18 км 3/0
[Ci fib]
+22.0 +15.3 66 +26 +26 душно 1014.0 992.8
00 16.06 В 3 20 км 8/0
[Ac As Ci fib]
+21.5 +11.2 52 +23 +23 комфорт 1014.0 992.8
03 16.06 ЮВ 3 20 км 9/0
[Ac As Ci sp]
+20.7 +11.6 56 +23 +23 комфорт 1013.0 991.7 +20.0
06 16.06 СЗ 4 19 км 9/0
[Ac trans Cs]
+21.2 +13.1 60 +24 +24 комфорт 1013.0 991.8 +20.0
09 16.06 В 4 17 км 9/0
[Ac trans Cs]
+21.8 +13.7 60 +25 +25 комфорт 1012.0 990.8
12 16.06 С 5 17 км в посл. час гроза {ливн. осадки} 9/3 600 м
[Cb calv Ac As]
+26.0 +17.4 59 +30 +30 душно 1013.0 992.1
15 16.06 СЗ 3 18 км 9/0
[Cs]
+23.5 +17.0 67 +27 +27 душно 1013.0 992.0
18 16.06 СВ 1 19 км 9/0
[Ac As Cs]
+23.5 +17.7 70 +28 +28 душно 1014.0 993.0 +27.2 0.0
21 16.06 СЗ 3 17 км 9/6 750 м
[Sc Ac As]
+20.6 +18.2 86 +25 +25 комфорт 1015.0 993.7
00 17.06 СЗ 3 10 км 10 баллов +17.9 +15.3 85 +18 +18 1017.0 995.5
03 17.06 СЗ 3 18 км 10/10 500 м
[St]
+17.2 +14.7 85 +17 +17 1017.0 995.4 +16.7
06 17.06 З 3 10 км 10 баллов +17.8 +11.8 68 +18 +18 1018.0 996.4 +16.7
09 17.06 СЗ 3 10 км 10 баллов +18.9 +13.1 69 +20 +20 1018.0 996.5
12 17.06 СЗ 3 10 км 10 баллов +19.1 +13.3 69 +20 +20 1019.0 997.5
15 17.06 СЗ 3 10 км 6 баллов +20.8 +14.9 69 +24 +26 комфорт 1018.0 996.7
18 17.06 З 2 10 км 10 баллов +20.2 +15.0 72 +23 +23 комфорт 1018.0 996.6 +22.0
21 17.06 СЗ 2 10 км 6 баллов +17.4 +14.8 85 +18 +18 1020.0 998.4

 

Местоположение метеостанции Волковыск (Гродненская область, Беларусь): широта 53.17 долгота 24.45 высота над уровнем моря 183 м.

В архиве по умолчанию представлена погода в Волковыске за последнюю неделю. Архивные данные за месяц целиком и за предыдущие месяцы, начиная с января 2011 года, Вы можете получить, выбрав интересующий диапазон дат из раскрывающегося списка и нажав кнопку "Ввод!".


*Определитесь, кто Вы:
робот инопланетянин человек

Внимание! Время в таблицах - всемирное. Для получения местного времени необходимо прибавить поправку, которая равна 3 ч.

Смотрите также архив погоды в соседних городах и на ближайших метеорологических станциях:

Погода в Гродно (Гродненская область, Беларусь) (55 км)
Погода в Пружанах (Брестская область, Беларусь) (69 км)
Погода в Ивацевичах (Брестская область, Беларусь) (80 км)
Погода в Белостоке (Польша) (86 км)
Погода в Лиде (Гродненская область, Беларусь) (99 км)
Погода в Барановичах (Брестская область, Беларусь) (101 км)
Погода в Новогрудке (Гродненская область, Беларусь) (104 км)
Погода в Высоком (Брестская область, Беларусь) (115 км)
Погода в Дрогичине (Брестская область, Беларусь) (116 км)
Погода в Варена (Литва) (120 км)

Пояснения к столбцам:

Ветер - указаны скорость ветра в м/с - средняя за 10 мин, порывы в срок и между сроками (в фигурных скобках) и направление, откуда дует ветер: С - северный, СВ - северо-восточный, В - восточный, ЮВ - юго-восточный, Ю - южный, ЮЗ - юго-западный, З - западный, СЗ - северо-западный.
Видимость - горизонтальная дальность видимости в метрах или километрах. При видимости от 1 до 10 км при отсутствии осадков обычно наблюдается дымка, при ухудшении видимости до 1 км и менее - туман. В сухую погоду видимость может ухудшаться дымом, пылью или мглою.
Явления - указаны атмосферные явления, наблюдавшиеся в срок или в последний час перед сроком; фигурными скобками обозначены явления, наблюдавшиеся между сроками (за 1-3 часа до срока); квадратными скобками обозначены град или гололедные отложения с указанием их диаметра в мм.
Облачность - указаны через наклонную черту общая и нижняя облачность в баллах и высота нижней границы облаков в метрах; квадратными скобками обозначены формы облаков: Ci - перистые, Cs - перисто-слоистые, Cc - перисто-кучевые, Ac - высококучевые, As - высокослоистые, Sc - слоисто-кучевые, Ns - слоисто-дождевые, Cu - кучевые, Cb - кучево-дождевые. Подробнее классификацию облаков см. в Атласе облаков (PDF).
T - Температура воздуха - температура, измеренная на высоте 2 м над землей.
Td - Температура точки росы - температура, при понижении до которой содержащийся в воздухе водяной пар достигнет насыщения.
f - Относительная влажность воздуха - влажноcть воздуха, измеренная на высоте 2 м над землей.
Te - Эффективная температура - температура, которую ощущает одетый по сезону человек в тени. Характеристика душности погоды. При расчете учитывается влияние влажности воздуха и скорости ветра на теплоощущения человека.
Tes - Эффективная температура на солнце - температура, которую ощущает человек, с поправкой на солнечный нагрев. Характеристика знойности погоды. Зависит от высоты солнца над горизонтом, облачности и скорости ветра. Ночью, в пасмурную погоду, а также при ветре 12 м/с и более поправка равна нулю.
P - Атмосферное давление - приведенное к уровню моря атмосферное давление.
Po - Атмосферное давление - измеренное на уровне метеостанции атмосферное давление.
Tmin - Минимальная температура - минимум температуры воздуха на высоте 2 м над землей.
Tmax - Максимальная температура - максимум температуры воздуха на высоте 2 м над землей.
R - Количество осадков - Количество выпавших осадков за период времени, мм. При наведении курсора мыши на число - период времени, за который выпало указанное количество осадков.
R24 - Количество осадков - Количество выпавших осадков за 24 часа, мм.
S - Снежный покров - Высота снежного покрова, см. При наведении курсора мыши на число - состояние снежного покрова и степень покрытия местности в баллах.